FW3211 Weather Reports


Display with metric or nautical units.
time (UTC)temp
F
wind
direction
speed
MPH
gust
MPH
rain 1hr
in
rain 24hr
in
rain mn
in
humidity
%
barometer
mb
20260507105405 58 185 4.0 11.0 0.00 0.05 0.05 75 1015.5
20260507104906 58 204 4.0 11.0 0.00 0.05 0.05 76 1015.4
20260507104406 58 135 4.0 11.0 0.00 0.05 0.05 76 1015.5
20260507103907 58 191 4.0 11.0 0.00 0.05 0.05 76 1015.6
20260507103408 58 159 5.0 13.0 0.00 0.05 0.05 76 1015.6
20260507102906 58 103 5.0 13.0 0.00 0.05 0.05 76 1015.6
20260507102406 58 147 5.0 15.0 0.00 0.05 0.05 76 1015.7
20260507102143 58 183 5.0 15.0 0.00 0.05 0.05 76 1015.6
20260507101406 58 102 5.0 12.0 0.00 0.05 0.05 76 1015.5
20260507100910 58 207 5.0 12.0 0.00 0.05 0.05 75 1015.6
20260507100708 58 136 5.0 11.0 0.00 0.05 0.05 75 1015.7
20260507095906 59 192 5.0 14.0 0.00 0.05 0.05 74 1015.6
20260507095403 59 185 4.0 14.0 0.00 0.05 0.05 73 1015.6
20260507094907 59 206 5.0 10.0 0.00 0.05 0.05 72 1015.6
20260507094416 58 191 5.0 13.0 0.00 0.05 0.05 72 1015.6
20260507094149 59 260 4.0 13.0 0.00 0.05 0.05 73 1015.6
20260507093406 59 131 4.0 11.0 0.00 0.05 0.05 73 1015.7
20260507093153 59 171 4.0 11.0 0.00 0.05 0.05 72 1015.6
20260507092405 59 158 4.0 10.0 0.00 0.05 0.05 72 1015.7
20260507091905 59 181 5.0 10.0 0.00 0.05 0.05 72 1015.7
20260507091418 60 97 5.0 14.0 0.00 0.05 0.05 74 1015.7
20260507090903 59 261 5.0 14.0 0.00 0.05 0.05 74 1015.7
20260507090411 59 152 5.0 11.0 0.00 0.05 0.05 75 1015.6
20260507085903 59 152 5.0 12.0 0.00 0.05 0.05 75 1015.5
20260507085404 59 80 4.0 12.0 0.00 0.05 0.05 74 1015.4
20260507085153 59 133 5.0 15.0 0.00 0.05 0.05 75 1015.5
20260507084404 59 221 5.0 15.0 0.00 0.05 0.05 74 1015.4
20260507083906 59 176 5.0 12.0 0.00 0.05 0.05 75 1015.4
20260507083406 59 244 5.0 10.0 0.00 0.05 0.05 76 1015.3
20260507082907 59 181 5.0 10.0 0.00 0.05 0.05 76 1015.2
20260507082710 59 118 4.0 11.0 0.00 0.05 0.05 76 1015.1
20260507081905 58 117 4.0 11.0 0.02 0.05 0.05 77 1015.2
20260507081404 58 179 4.0 12.0 0.03 0.05 0.05 78 1015.1
20260507081148 57 222 3.0 12.0 0.03 0.05 0.05 79 1015.2
20260507080401 56 181 2.0 8.0 0.03 0.05 0.05 78 1015.2
20260507075902 56 228 2.0 7.0 0.03 0.05 0.05 79 1015.1
20260507075401 56 184 3.0 7.0 0.03 0.05 0.05 79 1014.9
20260507074901 56 204 3.0 7.0 0.03 0.05 0.05 79 1014.9
20260507074402 56 243 2.0 6.0 0.03 0.05 0.05 79 1014.9
20260507073901 56 247 1.0 3.0 0.03 0.05 0.05 78 1014.8
20260507073401 56 94 0.0 2.0 0.03 0.05 0.05 77 1014.8
20260507072903 56 93 1.0 2.0 0.03 0.05 0.05 76 1014.8
20260507072401 57 93 1.0 4.0 0.03 0.05 0.04 76 1014.7
20260507071859 57 90 2.0 8.0 0.01 0.02 0.02 75 1014.8
20260507071358 57 116 3.0 8.0 0.00 0.02 0.02 74 1014.6
20260507071158 58 58 2.0 4.0 0.00 0.02 0.02 75 1014.7
20260507070354 57 235 2.0 5.0 0.00 0.02 0.02 76 1014.7
20260507070139 57 238 1.0 5.0 0.00 0.02 0.02 76 1014.7
20260507065357 56 82 1.0 4.0 0.00 0.02 0.02 77 1014.7
20260507064856 56 285 1.0 4.0 0.00 0.02 0.02 77 1014.6
20260507064354 56 268 1.0 3.0 0.00 0.02 0.02 77 1014.5
20260507063852 56 268 1.0 2.0 0.00 0.02 0.02 76 1014.5
20260507063351 56 268 1.0 3.0 0.00 0.02 0.02 75 1014.4
20260507062847 56 268 1.0 4.0 0.00 0.02 0.02 75 1014.4
20260507062341 56 102 1.0 4.0 0.00 0.02 0.02 75 1014.3
20260507061841 56 174 1.0 2.0 0.00 0.02 0.02 76 1014.4
20260507061629 56 174 1.0 3.0 0.00 0.04 0.02 76 1014.4
20260507060840 56 87 1.0 3.0 0.00 0.08 0.02 76 1014.4
20260507060339 56 210 1.0 2.0 0.00 0.08 0.02 76 1014.3
20260507055839 55 192 1.0 2.0 0.01 0.08 0.02 76 1014.3
20260507055339 55 245 0.0 2.0 0.02 0.08 0.02 77 1014.3
20260507054839 55 75 0.0 2.0 0.02 0.08 0.02 77 1014.3
20260507054339 55 75 1.0 3.0 0.02 0.08 0.02 77 1014.1
20260507054120 55 74 1.0 3.0 0.02 0.08 0.02 78 1014.1
20260507053339 55 66 1.0 3.0 0.02 0.08 0.02 78 1014.1
20260507052842 55 280 2.0 3.0 0.02 0.08 0.02 78 1013.9
20260507052336 55 4 1.0 3.0 0.02 0.08 0.02 78 1013.8
20260507052119 54 192 1.0 2.0 0.02 0.08 0.02 77 1013.8
20260507051332 55 192 1.0 2.0 0.02 0.08 0.02 78 1013.8
20260507051136 55 266 0.0 2.0 0.02 0.08 0.02 78 1013.7
20260507050332 55 266 1.0 3.0 0.02 0.08 0.02 77 1013.7
20260507045833 55 267 1.0 3.0 0.01 0.07 0.01 78 1013.7
20260507045334 54 156 0.0 2.0 0.00 0.06 0.00 78 1013.7
20260507044838 54 50 1.0 2.0 0.00 0.06 0.00 78 1013.5
20260507044335 54 50 1.0 3.0 0.00 0.06 0.00 78 1013.5
20260507043835 54 50 0.0 3.0 0.00 0.06 0.00 79 1013.5
20260507043339 54 298 1.0 3.0 0.00 0.07 0.00 79 1013.5
20260507042835 54 298 1.0 3.0 0.00 0.07 0.00 78 1013.4
20260507042335 54 60 0.0 2.0 0.00 0.11 0.00 79 1013.4
20260507041836 54 283 0.0 2.0 0.00 0.17 0.00 79 1013.3
20260507041335 54 283 0.0 2.0 0.00 0.17 0.00 79 1013.4
20260507040836 54 284 0.0 2.0 0.00 0.17 0.00 79 1013.4
20260507040340 54 284 1.0 3.0 0.00 0.17 0.00 79 1013.3
20260507035832 54 283 1.0 3.0 0.00 0.17 0.00 79 1013.3
20260507035333 54 283 1.0 3.0 0.00 0.17 0.00 79 1013.4
20260507034837 54 93 1.0 2.0 0.00 0.17 0.00 79 1013.4
20260507034334 54 93 1.0 4.0 0.00 0.17 0.00 79 1013.4
20260507033831 54 108 1.0 4.0 0.00 0.17 0.00 79 1013.3
20260507033333 54 291 1.0 2.0 0.00 0.17 0.00 79 1013.3
20260507033132 54 291 1.0 2.0 0.00 0.17 0.00 79 1013.4
20260507032332 54 290 1.0 2.0 0.00 0.17 0.00 79 1013.3
20260507031832 54 291 1.0 3.0 0.00 0.17 0.00 79 1013.3
20260507031333 54 279 1.0 3.0 0.00 0.18 0.00 79 1013.3
20260507030832 54 45 1.0 2.0 0.00 0.18 0.00 79 1013.2
20260507030334 54 45 1.0 3.0 0.00 0.18 0.00 79 1013.2
20260507025828 54 16 1.0 4.0 0.00 0.19 0.00 79 1013.2
20260507025329 54 81 1.0 4.0 0.00 0.20 0.00 79 1013.3
20260507025110 54 297 1.0 2.0 0.00 0.27 0.00 79 1013.2
20260507024325 54 297 1.0 4.0 0.00 0.45 0.00 79 1013.3
20260507023823 54 297 1.0 4.0 0.00 0.62 0.00 79 1013.3
20260507023326 54 297 1.0 3.0 0.00 0.71 0.00 79 1013.4
20260507022829 54 297 2.0 4.0 0.00 0.75 0.00 79 1013.4
20260507022605 54 297 2.0 4.0 0.00 0.77 0.00 79 1013.4
20260507021822 54 304 1.0 3.0 0.00 0.80 0.00 79 1013.3
20260507021321 54 304 1.0 3.0 0.00 0.82 0.00 79 1013.3
20260507020823 54 304 1.0 3.0 0.00 0.84 0.00 79 1013.3
20260507020323 54 304 1.0 2.0 0.00 0.87 0.00 79 1013.3
20260507015825 54 304 1.0 2.0 0.00 0.90 0.00 79 1013.4
20260507015324 54 304 1.0 2.0 0.00 0.96 0.00 80 1013.3
20260507014819 54 304 1.0 4.0 0.00 1.07 0.00 80 1013.3
20260507014318 54 304 2.0 4.0 0.00 1.08 0.00 80 1013.2
20260507014108 54 296 2.0 4.0 0.00 1.09 0.00 80 1013.2
20260507013318 54 293 2.0 3.0 0.00 1.09 0.00 80 1013.2
20260507012817 54 293 1.0 3.0 0.00 1.10 0.00 80 1013.2
20260507012318 54 293 0.0 2.0 0.00 1.11 0.00 80 1013.3
20260507011814 54 293 0.0 2.0 0.00 1.12 0.00 80 1013.3
20260507011315 54 293 1.0 2.0 0.00 1.12 0.00 80 1013.3
20260507010810 54 255 1.0 2.0 0.00 1.13 0.00 79 1013.3
20260507010308 54 255 1.0 3.0 0.00 1.13 0.00 80 1013.3
20260507005807 54 255 1.0 3.0 0.00 1.13 0.00 80 1013.4
20260507005306 54 255 1.0 3.0 0.00 1.13 0.00 80 1013.4
20260507005046 54 255 1.0 5.0 0.00 1.13 0.00 80 1013.4
20260507004305 54 250 1.0 5.0 0.00 1.13 0.00 80 1013.4
20260507003806 54 315 1.0 3.0 0.00 1.13 0.00 80 1013.4
20260507003347 54 295 1.0 2.0 0.00 1.13 0.00 80 1013.4
20260507003330 54 297 1.0 3.0 0.00 1.13 0.00 80 1013.3
20260507002305 54 295 1.0 2.0 0.00 1.13 0.00 80 1013.4
20260507001803 54 295 1.0 2.0 0.00 1.13 0.00 80 1013.3
20260507001302 54 295 1.0 3.0 0.00 1.13 0.00 80 1013.4
20260507000802 54 295 1.0 3.0 0.00 1.13 0.00 80 1013.4
20260507000302 54 300 1.0 3.0 0.00 1.13 0.00 80 1013.4
20260506235802 54 300 1.0 3.0 0.00 1.13 0.00 80 1013.4
20260506235306 54 301 1.0 3.0 0.00 1.13 0.00 80 1013.5
20260506234802 54 301 1.0 3.0 0.00 1.13 0.00 80 1013.5
20260506234303 54 237 1.0 4.0 0.00 1.13 0.00 80 1013.5
20260506234051 54 294 2.0 4.0 0.00 1.13 0.00 80 1013.6
20260506233308 54 295 2.0 3.0 0.00 1.13 0.00 80 1013.6
20260506232802 54 283 1.0 3.0 0.00 1.13 0.00 80 1013.7
20260506232306 55 315 1.0 3.0 0.00 1.13 0.00 80 1013.7
20260506232100 55 315 1.0 3.0 0.00 1.13 0.00 80 1013.6
20260506231253 55 260 2.0 6.0 0.00 1.13 0.00 80 1013.6
20260506230751 55 245 2.0 6.0 0.00 1.13 0.00 80 1013.6
20260506230249 55 236 2.0 6.0 0.00 1.13 0.00 80 1013.5
20260506225749 55 224 2.0 5.0 0.00 1.13 0.00 80 1013.5
20260506225249 55 183 1.0 4.0 0.00 1.13 0.00 80 1013.6
20260506224749 55 274 1.0 3.0 0.00 1.13 0.00 80 1013.6
20260506224249 55 225 1.0 4.0 0.00 1.13 0.00 80 1013.5
20260506224035 55 227 1.0 4.0 0.00 1.13 0.00 80 1013.5
20260506223248 55 239 2.0 9.0 0.00 1.13 0.00 80 1013.4
20260506222746 55 291 2.0 9.0 0.00 1.13 0.00 80 1013.4
20260506222250 55 232 2.0 6.0 0.00 1.13 0.00 79 1013.4
20260506222044 55 248 2.0 6.0 0.00 1.13 0.00 80 1013.4
20260506221527 55 207 1.0 6.0 0.00 1.13 0.00 80 1013.4
20260506221031 55 270 1.0 5.0 0.00 1.13 0.00 80 1013.4
20260506220242 55 233 1.0 4.0 0.00 1.13 0.00 80 1013.5
20260506215739 55 305 2.0 4.0 0.00 1.13 1.13 80 1013.5
20260506215242 55 298 2.0 4.0 0.00 1.13 1.13 80 1013.4
20260506214736 55 258 1.0 5.0 0.00 1.13 1.13 80 1013.5
20260506214236 55 207 1.0 6.0 0.00 1.13 1.13 80 1013.5
20260506213737 55 280 1.0 6.0 0.00 1.13 1.13 80 1013.5
20260506213239 55 287 1.0 4.0 0.00 1.13 1.13 80 1013.5
20260506212736 55 280 1.0 3.0 0.00 1.13 1.13 80 1013.5
20260506212239 55 281 1.0 4.0 0.00 1.13 1.13 80 1013.4
20260506211737 55 209 1.0 4.0 0.00 1.13 1.13 80 1013.5
20260506211236 55 258 1.0 3.0 0.00 1.13 1.13 80 1013.5
20260506210733 55 258 1.0 3.0 0.00 1.13 1.13 80 1013.5
20260506210233 55 146 1.0 3.0 0.00 1.13 1.13 80 1013.5
20260506205731 55 243 1.0 3.0 0.00 1.13 1.13 80 1013.5
20260506205232 55 244 1.0 3.0 0.00 1.13 1.13 80 1013.5
20260506204725 55 222 1.0 3.0 0.00 1.13 1.13 80 1013.5
20260506204222 55 147 1.0 2.0 0.00 1.13 1.13 80 1013.5
20260506203712 55 147 1.0 2.0 0.00 1.13 1.13 80 1013.4
20260506203218 55 280 1.0 4.0 0.00 1.13 1.13 80 1013.4
20260506203058 55 284 1.0 4.0 0.00 1.13 1.13 80 1013.4
20260506202801 55 280 1.0 4.0 0.00 1.13 1.13 80 1013.4
20260506201712 55 224 1.0 3.0 0.00 1.13 1.13 80 1013.3
20260506201206 55 224 1.0 3.0 0.00 1.13 1.13 80 1013.3
20260506200707 55 224 0.0 3.0 0.00 1.13 1.13 80 1013.2
20260506200206 55 224 1.0 5.0 0.00 1.13 1.13 80 1013.1
20260506195705 56 277 1.0 5.0 0.00 1.13 1.13 80 1013.1
20260506195209 56 111 0.0 2.0 0.00 1.13 1.13 80 1013.1
20260506194705 56 118 0.0 1.0 0.00 1.13 1.13 80 1013.0
20260506194259 56 118 0.0 1.0 0.00 1.13 1.13 80 1012.8
20260506194239 56 118 0.0 1.0 0.00 1.13 1.13 80 1012.9
20260506193208 56 118 0.0 2.0 0.00 1.13 1.13 80 1012.7
20260506193006 56 118 0.0 2.0 0.00 1.13 1.13 80 1012.6
20260506192155 56 118 0.0 2.0 0.00 1.13 1.13 80 1012.6
20260506191652 56 118 0.0 2.0 0.00 1.13 1.13 80 1012.5
20260506191156 56 118 1.0 4.0 0.00 1.13 1.13 80 1012.4
20260506190655 56 117 2.0 6.0 0.00 1.13 1.13 79 1012.4
20260506190151 56 170 2.0 6.0 0.00 1.13 1.13 79 1012.3
20260506185654 56 162 2.0 8.0 0.00 1.13 1.13 79 1012.2
20260506185152 56 199 3.0 8.0 0.00 1.13 1.13 79 1012.1
20260506184652 56 165 2.0 7.0 0.00 1.13 1.13 80 1012.1
20260506184152 56 129 2.0 7.0 0.00 1.13 1.13 80 1012.1
20260506183653 56 184 2.0 6.0 0.00 1.13 1.13 79 1011.9
20260506183151 56 199 2.0 4.0 0.00 1.13 1.13 79 1012.0
20260506182652 56 138 2.0 5.0 0.00 1.13 1.13 79 1011.9
20260506182153 56 215 2.0 5.0 0.00 1.13 1.13 79 1011.9
20260506181651 56 221 2.0 6.0 0.00 1.13 1.13 79 1011.9
20260506181145 56 271 2.0 6.0 0.00 1.13 1.13 79 1011.7
20260506180638 56 208 3.0 9.0 0.00 1.13 1.13 79 1011.5
20260506180135 56 142 3.0 9.0 0.00 1.13 1.13 79 1011.5
20260506175921 56 165 2.0 7.0 0.00 1.13 1.13 79 1011.5
20260506175135 56 114 2.0 7.0 0.00 1.13 1.13 78 1011.4
20260506174633 56 59 3.0 8.0 0.00 1.13 1.13 78 1011.4
20260506174132 56 199 3.0 8.0 0.00 1.13 1.13 78 1011.4
20260506173633 56 141 3.0 11.0 0.00 1.13 1.13 78 1011.3
20260506173132 56 79 3.0 11.0 0.00 1.13 1.13 78 1011.3
20260506172632 57 168 3.0 9.0 0.00 1.13 1.13 78 1011.2
20260506172133 57 154 3.0 9.0 0.00 1.13 1.13 78 1011.3
20260506171637 57 175 3.0 8.0 0.00 1.13 1.13 78 1011.2
20260506171133 57 187 4.0 9.0 0.00 1.13 1.13 78 1011.2
20260506170647 57 102 3.0 9.0 0.00 1.13 1.13 77 1011.3
20260506170134 57 183 2.0 5.0 0.00 1.13 1.13 77 1011.2
20260506165635 57 217 3.0 10.0 0.00 1.13 1.13 78 1011.2
20260506165135 57 97 3.0 10.0 0.00 1.13 1.13 77 1011.2
20260506164634 57 168 3.0 8.0 0.00 1.13 1.13 77 1011.2
20260506164132 58 110 2.0 8.0 0.00 1.13 1.13 77 1011.2
20260506163922 57 185 3.0 8.0 0.00 1.13 1.13 77 1011.2
20260506163133 57 192 4.0 12.0 0.00 1.13 1.13 77 1011.2
20260506162632 58 185 3.0 12.0 0.00 1.13 1.13 77 1011.4
20260506162332 58 116 3.0 8.0 0.00 1.13 1.13 78 1011.2
20260506162246 58 209 3.0 9.0 0.00 1.13 1.13 77 1011.3
20260506161146 58 176 2.0 7.0 0.00 1.13 1.13 77 1011.3
20260506160643 58 120 2.0 6.0 0.00 1.13 1.13 78 1011.2
20260506160555 58 195 4.0 11.0 0.00 1.13 1.13 77 1011.2
20260506160542 58 144 3.0 9.0 0.00 1.13 1.13 78 1011.2
20260506155134 58 68 4.0 11.0 0.00 1.13 1.13 77 1011.1
20260506154638 58 162 5.0 11.0 0.00 1.13 1.13 77 1011.1
20260506154128 58 39 4.0 11.0 0.00 1.13 1.13 77 1011.1
20260506153623 58 145 3.0 11.0 0.00 1.13 1.13 76 1011.2
20260506153115 58 142 4.0 10.0 0.00 1.13 1.13 77 1011.1
20260506152605 58 187 4.0 10.0 0.00 1.13 1.13 76 1011.1
20260506152106 58 65 3.0 7.0 0.00 1.13 1.13 77 1011.1
20260506151610 58 118 2.0 6.0 0.00 1.13 1.13 77 1011.0
20260506151108 58 135 3.0 9.0 0.00 1.13 1.13 77 1011.1
20260506150607 58 218 4.0 10.0 0.00 1.13 1.13 76 1011.0
20260506150109 59 99 4.0 11.0 0.00 1.13 1.13 75 1011.1
20260506145606 59 205 3.0 11.0 0.00 1.13 1.13 75 1011.0
20260506145349 60 95 3.0 9.0 0.00 1.13 1.13 75 1011.1
20260506144605 60 212 3.0 9.0 0.00 1.13 1.13 75 1011.0
20260506144105 60 168 3.0 9.0 0.00 1.13 1.13 75 1011.0
20260506143605 60 89 3.0 8.0 0.00 1.13 1.13 75 1011.0
20260506143105 60 81 3.0 8.0 0.00 1.13 1.13 75 1011.0
20260506142841 60 137 4.0 10.0 0.00 1.13 1.13 75 1011.0
20260506142105 60 138 4.0 10.0 0.00 1.13 1.13 75 1011.0
20260506141604 60 199 4.0 9.0 0.00 1.13 1.13 75 1011.0
20260506141107 60 131 5.0 11.0 0.00 1.13 1.13 76 1010.9
20260506140603 59 83 5.0 12.0 0.00 1.13 1.13 76 1011.0
20260506140106 59 173 5.0 12.0 0.00 1.13 1.13 76 1011.0
20260506135604 60 154 4.0 11.0 0.00 1.13 1.13 77 1011.0
20260506135343 60 120 5.0 11.0 0.00 1.13 1.13 77 1011.0
20260506134609 60 107 5.0 13.0 0.00 1.13 1.13 77 1011.1
20260506134106 60 100 5.0 13.0 0.00 1.13 1.13 77 1011.1
20260506133901 60 141 4.0 9.0 0.00 1.13 1.13 78 1011.2
20260506133110 59 170 4.0 11.0 0.00 1.13 1.13 79 1011.2
20260506132609 59 156 4.0 11.0 0.00 1.13 1.13 78 1011.1
20260506132103 59 140 4.0 9.0 0.00 1.13 1.13 79 1011.2
20260506131603 58 135 4.0 13.0 0.00 1.13 1.13 79 1011.2
20260506131104 59 183 4.0 13.0 0.00 1.13 1.13 79 1011.1
20260506130607 59 156 3.0 8.0 0.00 1.13 1.13 79 1011.2
20260506130109 59 147 3.0 9.0 0.00 1.13 1.13 79 1011.2
20260506125604 59 131 4.0 10.0 0.00 1.13 1.13 79 1011.2
20260506125144 60 180 3.0 10.0 0.00 1.13 1.13 78 1011.2
20260506125124 59 90 3.0 10.0 0.00 1.13 1.13 78 1011.1
20260506124107 60 153 3.0 10.0 0.00 1.13 1.13 78 1011.2
20260506123604 60 119 3.0 10.0 0.00 1.13 1.13 78 1011.1
20260506123104 60 132 5.0 13.0 0.00 1.13 1.13 77 1011.2
20260506122609 60 164 5.0 13.0 0.00 1.13 1.13 78 1011.1
20260506122106 59 123 4.0 11.0 0.00 1.13 1.13 78 1011.2
20260506121605 59 189 4.0 10.0 0.00 1.13 1.13 79 1011.1
20260506121105 59 182 4.0 10.0 0.00 1.13 1.13 78 1011.0
20260506120606 59 87 3.0 9.0 0.00 1.13 1.13 78 1011.1
20260506120111 59 179 3.0 13.0 0.00 1.13 1.13 79 1011.1
20260506115608 59 78 4.0 13.0 0.00 1.13 1.13 78 1011.0
20260506115105 59 195 3.0 10.0 0.00 1.13 1.13 79 1011.1
20260506114603 60 193 3.0 10.0 0.00 1.13 1.13 79 1011.1
20260506114105 60 204 4.0 12.0 0.00 1.13 1.13 80 1011.1
20260506113607 59 165 4.0 12.0 0.00 1.13 1.13 80 1011.0
20260506113105 59 39 5.0 11.0 0.00 1.13 1.13 80 1011.0
20260506112606 59 139 5.0 11.0 0.00 1.13 1.13 81 1011.1
20260506112103 58 156 5.0 15.0 0.00 1.13 1.13 81 1011.0
20260506111604 58 89 5.0 15.0 0.00 1.13 1.13 82 1011.0
20260506111103 57 114 5.0 11.0 0.00 1.13 1.13 82 1011.1
20260506110618 57 180 5.0 10.0 0.00 1.13 1.13 82 1011.1
20260506110106 57 124 4.0 10.0 0.00 1.13 1.13 82 1011.1
20260506105845 57 149 4.0 10.0 0.00 1.13 1.13 82 1011.1